Location: Newark
(53.7833°N, 9.4833°E)
Time: 22:02:32
(UTC+00:00)

Envisat - Visible Passes

Search period start: 10 December 2019 00:00
Search period end: 20 December 2019 00:00
Orbit: 764 x 766 km, 98.1° (Epoch: 10 December)

Date Brightness Start Highest point End Pass type
(mag) Time Alt. Az. Time Alt. Az. Time Alt. Az.
10 Dec 6.1 04:41:30 10° NE 04:43:49 13° E 04:46:08 10° ESE visible
10 Dec 3.3 06:18:41 10° NNE 06:23:47 73° ESE 06:28:52 10° S visible
10 Dec 3.6 16:01:32 10° SE 16:06:03 33° ENE 16:10:35 10° N visible
10 Dec 4.0 17:40:03 10° S 17:44:57 47° W 17:49:53 10° NNW visible
11 Dec 4.6 05:42:05 10° NNE 05:46:51 38° E 05:51:34 10° SSE visible
11 Dec 3.0 17:02:59 10° SSE 17:08:04 89° WSW 17:13:12 10° NNW visible
11 Dec 5.8 18:44:42 10° SW 18:47:51 16° W 18:51:02 10° NW visible
12 Dec 5.7 05:05:55 10° NE 05:09:42 21° E 05:13:28 10° SE visible
12 Dec 3.0 06:44:12 10° NNE 06:49:18 74° WNW 06:54:22 10° SSW visible
12 Dec 3.2 16:26:29 10° SE 16:31:22 50° ENE 16:36:18 10° N visible
12 Dec 4.8 18:06:10 10° SSW 18:10:38 30° W 18:15:08 10° NNW visible
13 Dec 6.3 04:31:25 10° ENE 04:32:21 10° E 04:33:17 10° E visible
13 Dec 3.7 06:07:25 10° NNE 06:12:29 60° E 06:17:29 10° S visible
13 Dec 3.8 15:50:34 10° ESE 15:54:51 28° ENE 15:59:10 10° N visible
13 Dec 3.6 17:28:37 10° S 17:33:37 58° W 17:38:40 10° NNW visible
14 Dec 4.9 05:30:56 10° NNE 05:35:28 32° E 05:39:59 10° SSE visible
14 Dec 2.9 16:51:43 10° SSE 16:56:48 77° ENE 17:01:54 10° NNW visible
14 Dec 5.5 18:32:45 10° SW 18:36:25 20° W 18:40:07 10° NW visible
15 Dec 5.9 04:54:58 10° NE 04:58:16 17° E 05:01:33 10° SE visible
15 Dec 3.0 06:32:53 10° NNE 06:38:01 88° WNW 06:43:07 10° SSW visible
15 Dec 3.3 16:15:24 10° SE 16:20:09 42° ENE 16:24:56 10° N visible
15 Dec 4.5 17:54:35 10° SSW 17:59:16 37° W 18:03:58 10° NNW visible
16 Dec 4.0 05:56:11 10° NNE 06:01:09 49° E 06:06:04 10° S visible
16 Dec 4.0 15:39:39 10° ESE 15:43:41 24° ENE 15:47:44 10° N visible
16 Dec 3.3 17:17:14 10° S 17:22:18 70° WSW 17:27:25 10° NNW visible
16 Dec 6.1 19:00:12 10° WSW 19:02:18 12° W 19:04:25 10° WNW visible
17 Dec 5.3 05:19:48 10° NE 05:24:05 26° E 05:28:20 10° SSE visible
17 Dec 2.9 16:40:31 10° SSE 16:45:32 64° ENE 16:50:35 10° N visible
17 Dec 5.3 18:20:56 10° SW 18:25:00 24° W 18:29:06 10° NW visible
18 Dec 6.0 04:44:11 10° NE 04:46:49 14° E 04:49:27 10° ESE visible
18 Dec 3.2 06:21:36 10° NNE 06:26:44 78° ESE 06:31:49 10° S visible
18 Dec 3.5 16:04:21 10° SE 16:08:56 35° ENE 16:13:33 10° N visible
18 Dec 4.1 17:43:03 10° S 17:47:54 44° W 17:52:47 10° NNW visible
19 Dec 4.4 05:44:58 10° NNE 05:49:48 41° E 05:54:35 10° SSE visible
19 Dec 3.0 17:05:55 10° SSE 17:11:00 84° WSW 17:16:08 10° NNW visible
19 Dec 5.9 18:47:55 10° WSW 18:50:51 15° W 18:53:47 10° NW visible
